Time,TemperatureF,DewpointF,PressureIn,WindDirection,WindDirectionDegrees,WindSpeedMPH,WindSpeedGustMPH,Humidity,HourlyPrecipIn,Conditions,Clouds,dailyrainin,SoftwareType,DateUTC
2013-02-07 00:01:00,23.0,13.9,29.22,SSE,167,2.5,3.2,67,0.00,,,0.11,proprietary,2013-02-07 05:01:00,
2013-02-07 00:05:00,23.0,13.9,29.23,SSE,152,3.6,4.0,67,0.00,,,0.00,proprietary,2013-02-07 05:05:00,
2013-02-07 00:09:00,23.0,14.0,29.23,South,169,1.7,2.1,67,0.00,,,0.00,proprietary,2013-02-07 05:09:00,
2013-02-07 00:14:00,23.0,14.0,29.23,SSE,150,3.3,3.8,67,0.00,,,0.00,proprietary,2013-02-07 05:14:00,
2013-02-07 00:20:00,23.0,14.4,29.24,SSE,165,2.3,2.8,68,0.00,,,0.00,proprietary,2013-02-07 05:20:00,
2013-02-07 00:26:00,23.1,14.3,29.23,SSE,152,2.8,3.5,68,0.00,,,0.00,proprietary,2013-02-07 05:26:00,
2013-02-07 00:31:00,23.0,14.4,29.24,SSE,147,2.8,3.1,68,0.00,,,0.00,proprietary,2013-02-07 05:31:00,
2013-02-07 00:36:00,23.0,14.4,29.24,SE,143,2.5,2.9,69,0.00,,,0.00,proprietary,2013-02-07 05:36:00,
2013-02-07 00:42:00,22.9,14.4,29.23,SE,129,2.9,3.5,69,0.00,,,0.00,proprietary,2013-02-07 05:42:00,
2013-02-07 00:47:00,22.9,14.4,29.23,SE,137,3.5,4.2,69,0.00,,,0.00,proprietary,2013-02-07 05:47:00,
2013-02-07 00:52:00,23.0,14.4,29.24,SE,135,2.6,3.2,69,0.00,,,0.00,proprietary,2013-02-07 05:52:00,
2013-02-07 00:57:00,23.0,14.4,29.24,ESE,121,1.5,2.7,68,0.00,,,0.00,proprietary,2013-02-07 05:57:00,
2013-02-07 01:02:00,23.2,14.3,29.24,SE,131,1.8,2.3,68,0.00,,,0.00,proprietary,2013-02-07 06:02:00,
2013-02-07 01:07:00,23.3,14.2,29.24,SE,136,2.5,3.2,67,0.00,,,0.00,proprietary,2013-02-07 06:07:00,
2013-02-07 01:13:00,23.4,14.2,29.23,North,0,0.0,0.0,67,0.00,,,0.00,proprietary,2013-02-07 06:13:00,
2013-02-07 01:18:00,23.4,14.3,29.23,ESE,123,0.8,2.6,67,0.00,,,0.00,proprietary,2013-02-07 06:18:00,
2013-02-07 01:24:00,23.5,14.3,29.23,SE,128,2.7,3.5,67,0.00,,,0.00,proprietary,2013-02-07 06:24:00,
2013-02-07 01:30:00,23.5,14.4,29.23,SE,127,2.6,4.1,67,0.00,,,0.00,proprietary,2013-02-07 06:30:00,
2013-02-07 01:35:00,23.6,14.6,29.23,SE,145,4.2,5.1,68,0.00,,,0.00,proprietary,2013-02-07 06:35:00,
2013-02-07 01:40:00,23.6,14.8,29.22,SSE,147,4.5,5.6,68,0.00,,,0.00,proprietary,2013-02-07 06:40:00,
2013-02-07 01:45:00,23.6,14.7,29.22,SE,141,4.4,5.7,68,0.00,,,0.00,proprietary,2013-02-07 06:45:00,
2013-02-07 01:50:00,23.6,14.9,29.22,SE,141,3.9,5.0,68,0.00,,,0.00,proprietary,2013-02-07 06:50:00,
2013-02-07 01:56:00,23.5,14.7,29.23,SSE,154,3.9,4.6,68,0.00,,,0.00,proprietary,2013-02-07 06:56:00,
2013-02-07 02:01:00,23.6,15.1,29.23,SE,130,3.9,4.8,69,0.00,,,0.00,proprietary,2013-02-07 07:01:00,
2013-02-07 02:06:00,23.5,15.1,29.22,SE,140,5.0,6.2,69,0.00,,,0.00,proprietary,2013-02-07 07:06:00,
2013-02-07 02:12:00,23.5,15.2,29.22,SE,140,5.2,6.1,70,0.00,,,0.00,proprietary,2013-02-07 07:12:00,
2013-02-07 02:18:00,23.5,15.4,29.22,SE,136,5.4,7.5,70,0.00,,,0.00,proprietary,2013-02-07 07:18:00,
2013-02-07 02:23:00,23.5,15.3,29.22,SE,145,6.8,8.5,70,0.00,,,0.00,proprietary,2013-02-07 07:23:00,
2013-02-07 02:28:00,23.5,15.2,29.21,SE,129,4.9,6.2,70,0.00,,,0.00,proprietary,2013-02-07 07:28:00,
2013-02-07 02:33:00,23.4,15.3,29.21,SE,130,4.4,6.1,70,0.00,,,0.00,proprietary,2013-02-07 07:33:00,
2013-02-07 02:38:00,23.4,15.3,29.21,SE,138,4.0,6.0,70,0.00,,,0.00,proprietary,2013-02-07 07:38:00,
2013-02-07 02:43:00,23.4,15.4,29.21,ESE,122,6.2,8.9,71,0.00,,,0.00,proprietary,2013-02-07 07:43:00,
2013-02-07 02:48:00,23.4,15.6,29.21,SE,142,5.1,7.5,71,0.00,,,0.00,proprietary,2013-02-07 07:48:00,
2013-02-07 02:54:00,23.5,15.7,29.21,SE,141,2.8,3.7,71,0.00,,,0.00,proprietary,2013-02-07 07:54:00,
2013-02-07 02:59:00,23.6,15.8,29.21,SE,131,4.8,6.0,71,0.00,,,0.00,proprietary,2013-02-07 07:59:00,
2013-02-07 03:04:00,23.7,15.9,29.21,SSE,150,4.4,5.1,71,0.00,,,0.00,proprietary,2013-02-07 08:04:00,
2013-02-07 03:09:00,23.8,16.1,29.21,SE,142,4.7,6.2,71,0.00,,,0.00,proprietary,2013-02-07 08:09:00,
2013-02-07 03:15:00,23.9,16.2,29.21,SE,142,6.5,7.8,72,0.00,,,0.00,proprietary,2013-02-07 08:15:00,
2013-02-07 03:20:00,23.9,16.3,29.21,SE,146,5.7,7.7,72,0.00,,,0.00,proprietary,2013-02-07 08:20:00,
2013-02-07 03:25:00,23.9,16.4,29.22,ESE,106,1.2,2.0,72,0.00,,,0.00,proprietary,2013-02-07 08:25:00,
2013-02-07 03:30:00,23.9,16.5,29.23,North,0,0.0,0.0,72,0.00,,,0.00,proprietary,2013-02-07 08:30:00,
2013-02-07 03:35:00,24.0,16.5,29.22,SE,128,1.9,2.3,72,0.00,,,0.00,proprietary,2013-02-07 08:35:00,
2013-02-07 03:41:00,24.0,16.5,29.23,North,357,0.8,2.0,72,0.00,,,0.00,proprietary,2013-02-07 08:41:00,
2013-02-07 03:46:00,24.0,16.6,29.22,ESE,116,1.9,3.0,72,0.00,,,0.00,proprietary,2013-02-07 08:46:00,
2013-02-07 03:51:00,23.9,16.6,29.22,East,92,3.2,4.0,73,0.00,,,0.00,proprietary,2013-02-07 08:51:00,
2013-02-07 03:56:00,23.8,16.6,29.22,East,89,1.9,3.5,73,0.00,,,0.00,proprietary,2013-02-07 08:56:00,
2013-02-07 04:01:00,23.8,16.9,29.21,East,80,2.2,3.7,74,0.00,,,0.00,proprietary,2013-02-07 09:01:00,
2013-02-07 04:06:00,23.8,17.0,29.21,ESE,112,2.1,3.2,74,0.00,,,0.00,proprietary,2013-02-07 09:06:00,
2013-02-07 04:11:00,23.9,17.4,29.20,East,83,3.1,4.4,75,0.00,,,0.00,proprietary,2013-02-07 09:11:00,
2013-02-07 04:16:00,23.9,17.7,29.20,East,93,3.7,4.6,76,0.00,,,0.00,proprietary,2013-02-07 09:16:00,
2013-02-07 04:21:00,24.0,17.9,29.20,East,79,2.4,4.0,77,0.00,,,0.00,proprietary,2013-02-07 09:21:00,
2013-02-07 04:26:00,24.0,18.1,29.20,East,91,2.7,4.6,77,0.00,,,0.00,proprietary,2013-02-07 09:26:00,
2013-02-07 04:31:00,24.1,18.4,29.19,East,83,2.8,4.6,78,0.00,,,0.00,proprietary,2013-02-07 09:31:00,
2013-02-07 04:36:00,24.1,18.6,29.19,East,81,2.5,3.6,79,0.00,,,0.00,proprietary,2013-02-07 09:36:00,
2013-02-07 04:41:00,24.1,18.7,29.20,ENE,63,2.0,2.7,79,0.00,,,0.00,proprietary,2013-02-07 09:41:00,
2013-02-07 04:46:00,24.2,18.8,29.19,East,83,2.9,5.6,79,0.00,,,0.00,proprietary,2013-02-07 09:46:00,
2013-02-07 04:52:00,24.2,18.8,29.19,East,89,2.9,5.3,79,0.00,,,0.00,proprietary,2013-02-07 09:52:00,
2013-02-07 04:57:00,24.2,18.9,29.19,ESE,109,3.1,4.0,79,0.00,,,0.00,proprietary,2013-02-07 09:57:00,
2013-02-07 05:02:00,24.3,18.8,29.20,SE,126,2.3,4.0,79,0.00,,,0.00,proprietary,2013-02-07 10:02:00,
2013-02-07 05:07:00,24.4,18.9,29.20,ESE,112,3.0,3.9,79,0.00,,,0.00,proprietary,2013-02-07 10:07:00,
2013-02-07 05:12:00,24.4,18.8,29.20,ESE,119,2.5,3.5,78,0.00,,,0.00,proprietary,2013-02-07 10:12:00,
2013-02-07 05:17:00,24.4,18.7,29.20,ESE,119,1.4,1.8,78,0.00,,,0.00,proprietary,2013-02-07 10:17:00,
2013-02-07 05:22:00,24.5,18.7,29.20,ESE,117,2.3,3.5,78,0.00,,,0.00,proprietary,2013-02-07 10:22:00,
2013-02-07 05:27:00,24.5,18.7,29.20,ESE,119,3.4,5.6,78,0.00,,,0.00,proprietary,2013-02-07 10:27:00,
2013-02-07 05:32:00,24.5,18.7,29.20,East,101,4.4,6.5,78,0.00,,,0.00,proprietary,2013-02-07 10:32:00,
2013-02-07 05:37:00,24.5,18.7,29.20,SE,126,4.2,5.5,78,0.00,,,0.00,proprietary,2013-02-07 10:37:00,
2013-02-07 05:43:00,24.5,18.7,29.19,ESE,118,1.3,1.9,78,0.00,,,0.00,proprietary,2013-02-07 10:43:00,
2013-02-07 05:49:00,24.5,18.7,29.20,ESE,110,1.2,3.2,78,0.00,,,0.00,proprietary,2013-02-07 10:49:00,
2013-02-07 05:54:00,24.5,18.6,29.20,SE,136,3.6,4.0,77,0.00,,,0.00,proprietary,2013-02-07 10:54:00,
2013-02-07 05:59:00,24.5,18.6,29.19,ESE,102,2.9,4.6,77,0.00,,,0.00,proprietary,2013-02-07 10:59:00,
2013-02-07 06:04:00,24.5,18.7,29.19,SE,130,4.4,6.0,77,0.00,,,0.00,proprietary,2013-02-07 11:04:00,
2013-02-07 06:09:00,24.5,18.6,29.19,SE,132,4.9,6.2,77,0.00,,,0.00,proprietary,2013-02-07 11:09:00,
2013-02-07 06:14:00,24.5,18.6,29.18,SE,135,4.5,7.5,78,0.00,,,0.00,proprietary,2013-02-07 11:14:00,
2013-02-07 06:19:00,24.5,18.7,29.18,ESE,120,4.1,6.4,78,0.00,,,0.00,proprietary,2013-02-07 11:19:00,
2013-02-07 06:24:00,24.4,18.7,29.18,SE,132,5.1,7.3,78,0.00,,,0.00,proprietary,2013-02-07 11:24:00,
2013-02-07 06:29:00,24.5,18.8,29.18,ESE,123,3.9,6.7,78,0.00,,,0.00,proprietary,2013-02-07 11:29:00,
2013-02-07 06:34:00,24.5,18.8,29.18,ESE,119,4.3,5.9,78,0.00,,,0.00,proprietary,2013-02-07 11:34:00,
2013-02-07 06:39:00,24.5,18.8,29.18,SE,124,3.0,4.6,78,0.00,,,0.00,proprietary,2013-02-07 11:39:00,
2013-02-07 06:44:00,24.6,18.9,29.19,SE,133,4.7,8.0,78,0.00,,,0.00,proprietary,2013-02-07 11:44:00,
2013-02-07 06:49:00,24.6,18.8,29.19,SE,131,5.3,7.7,78,0.00,,,0.00,proprietary,2013-02-07 11:49:00,
2013-02-07 06:54:00,24.7,18.8,29.18,SE,137,4.6,5.5,77,0.00,,,0.00,proprietary,2013-02-07 11:54:00,
2013-02-07 07:00:00,24.7,18.8,29.18,SE,129,5.2,6.1,77,0.00,,,0.00,proprietary,2013-02-07 12:00:00,
2013-02-07 07:05:00,24.7,18.7,29.18,ESE,114,3.0,5.8,77,0.00,,,0.00,proprietary,2013-02-07 12:05:00,
2013-02-07 07:10:00,24.7,18.8,29.18,SE,130,3.2,4.8,77,0.00,,,0.00,proprietary,2013-02-07 12:10:00,
2013-02-07 07:15:00,24.7,18.8,29.18,SE,126,5.0,5.5,77,0.00,,,0.00,proprietary,2013-02-07 12:15:00,
2013-02-07 07:20:00,24.8,18.7,29.18,ESE,109,2.4,3.8,77,0.00,,,0.00,proprietary,2013-02-07 12:20:00,
2013-02-07 07:25:00,24.8,18.7,29.18,SE,131,4.7,6.7,77,0.00,,,0.00,proprietary,2013-02-07 12:25:00,
2013-02-07 07:30:00,24.9,18.7,29.18,SE,127,3.1,4.3,77,0.00,,,0.00,proprietary,2013-02-07 12:30:00,
2013-02-07 07:35:00,24.9,18.7,29.17,SE,141,4.1,5.8,76,0.00,,,0.00,proprietary,2013-02-07 12:35:00,
2013-02-07 07:40:00,25.0,18.7,29.18,SE,133,3.4,4.4,76,0.00,,,0.00,proprietary,2013-02-07 12:40:00,
2013-02-07 07:45:00,25.1,18.7,29.18,SE,141,2.9,4.0,76,0.00,,,0.00,proprietary,2013-02-07 12:45:00,
2013-02-07 07:50:00,25.2,18.7,29.18,SE,141,4.0,5.3,76,0.00,,,0.00,proprietary,2013-02-07 12:50:00,
2013-02-07 07:55:00,25.3,18.8,29.18,SE,144,4.6,5.3,76,0.00,,,0.00,proprietary,2013-02-07 12:55:00,
2013-02-07 08:01:00,25.4,18.9,29.17,SSE,150,5.2,6.0,75,0.00,,,0.00,proprietary,2013-02-07 13:01:00,
2013-02-07 08:06:00,25.4,19.0,29.17,SSE,149,5.5,7.0,76,0.00,,,0.00,proprietary,2013-02-07 13:06:00,
2013-02-07 08:12:00,25.5,19.1,29.17,SE,137,4.8,6.5,76,0.00,,,0.00,proprietary,2013-02-07 13:12:00,
2013-02-07 08:17:00,25.5,19.2,29.17,SE,140,5.9,7.0,76,0.00,,,0.00,proprietary,2013-02-07 13:17:00,
2013-02-07 08:22:00,25.6,19.3,29.17,SE,138,5.5,8.3,76,0.00,,,0.00,proprietary,2013-02-07 13:22:00,
2013-02-07 08:27:00,25.7,19.4,29.17,SE,136,5.3,7.3,76,0.00,,,0.00,proprietary,2013-02-07 13:27:00,
2013-02-07 08:32:00,25.8,19.6,29.17,SE,138,4.5,5.7,76,0.00,,,0.00,proprietary,2013-02-07 13:32:00,
2013-02-07 08:37:00,25.9,19.7,29.17,SE,132,6.2,7.7,77,0.00,,,0.00,proprietary,2013-02-07 13:37:00,
2013-02-07 08:42:00,25.9,19.8,29.17,SE,140,4.2,4.9,77,0.00,,,0.00,proprietary,2013-02-07 13:42:00,
2013-02-07 08:47:00,26.0,20.0,29.17,SE,135,3.2,5.4,77,0.00,,,0.00,proprietary,2013-02-07 13:47:00,
2013-02-07 08:52:00,26.1,20.1,29.17,SE,133,3.6,4.5,77,0.00,,,0.00,proprietary,2013-02-07 13:52:00,
2013-02-07 08:57:00,26.2,20.3,29.17,SE,135,3.4,4.0,77,0.00,,,0.00,proprietary,2013-02-07 13:57:00,
2013-02-07 09:03:00,26.5,20.5,29.17,SE,138,3.1,3.8,77,0.00,,,0.00,proprietary,2013-02-07 14:03:00,
2013-02-07 09:08:00,26.6,20.6,29.17,SE,133,3.3,4.8,77,0.00,,,0.00,proprietary,2013-02-07 14:08:00,
2013-02-07 09:13:00,26.8,20.7,29.17,East,88,3.2,3.8,77,0.00,,,0.00,proprietary,2013-02-07 14:13:00,
2013-02-07 09:18:00,26.8,20.8,29.17,SE,126,4.1,5.1,77,0.00,,,0.00,proprietary,2013-02-07 14:18:00,
2013-02-07 09:23:00,26.9,20.9,29.17,SE,143,3.8,4.9,77,0.00,,,0.00,proprietary,2013-02-07 14:23:00,
2013-02-07 09:29:00,27.0,21.0,29.16,SE,131,3.6,4.3,77,0.00,,,0.00,proprietary,2013-02-07 14:29:00,
2013-02-07 09:34:00,27.1,21.2,29.16,SE,130,2.1,4.3,78,0.00,,,0.00,proprietary,2013-02-07 14:34:00,
2013-02-07 09:39:00,27.2,21.3,29.16,SE,133,2.4,3.4,78,0.00,,,0.00,proprietary,2013-02-07 14:39:00,
2013-02-07 09:44:00,27.3,21.4,29.16,SE,133,3.0,3.9,78,0.00,,,0.00,proprietary,2013-02-07 14:44:00,
2013-02-07 09:49:00,27.4,21.4,29.15,SE,135,4.5,5.8,77,0.00,,,0.00,proprietary,2013-02-07 14:49:00,
2013-02-07 09:54:00,27.5,21.5,29.15,SE,125,3.5,4.6,77,0.00,,,0.00,proprietary,2013-02-07 14:54:00,
2013-02-07 09:59:00,27.6,21.5,29.15,ESE,116,3.2,4.5,77,0.00,,,0.00,proprietary,2013-02-07 14:59:00,
2013-02-07 10:04:00,27.8,21.8,29.15,SE,144,5.1,6.4,77,0.00,,,0.00,proprietary,2013-02-07 15:04:00,
2013-02-07 10:09:00,28.2,22.0,29.15,SE,144,3.6,4.8,77,0.00,,,0.00,proprietary,2013-02-07 15:09:00,
2013-02-07 10:14:00,28.2,21.9,29.15,SE,145,5.4,6.6,76,0.00,,,0.00,proprietary,2013-02-07 15:14:00,
2013-02-07 10:19:00,28.3,22.0,29.14,SSE,147,5.2,6.6,76,0.00,,,0.00,proprietary,2013-02-07 15:19:00,
2013-02-07 10:24:00,28.5,22.3,29.14,SSE,150,5.4,6.9,77,0.00,,,0.00,proprietary,2013-02-07 15:24:00,
2013-02-07 10:29:00,28.5,22.1,29.14,SE,139,5.5,7.3,76,0.00,,,0.00,proprietary,2013-02-07 15:29:00,
2013-02-07 10:34:00,28.6,22.1,29.14,SE,137,5.5,6.8,76,0.00,,,0.00,proprietary,2013-02-07 15:34:00,
2013-02-07 10:39:00,28.7,22.3,29.14,SE,137,4.9,6.0,76,0.00,,,0.00,proprietary,2013-02-07 15:39:00,
2013-02-07 10:44:00,28.9,22.4,29.14,SE,139,4.7,6.2,76,0.00,,,0.00,proprietary,2013-02-07 15:44:00,
2013-02-07 10:49:00,29.0,22.6,29.14,SSE,152,4.8,5.7,76,0.00,,,0.00,proprietary,2013-02-07 15:49:00,
2013-02-07 10:54:00,29.5,22.8,29.14,SE,144,6.8,7.8,75,0.00,,,0.00,proprietary,2013-02-07 15:54:00,
2013-02-07 10:59:00,29.6,22.8,29.14,SE,126,3.5,5.3,75,0.00,,,0.00,proprietary,2013-02-07 15:59:00,
2013-02-07 11:04:00,30.0,23.0,29.14,SE,140,5.2,6.7,74,0.00,,,0.00,proprietary,2013-02-07 16:04:00,
2013-02-07 11:09:00,30.4,23.2,29.14,SE,140,3.5,4.5,74,0.00,,,0.00,proprietary,2013-02-07 16:09:00,
2013-02-07 11:14:00,30.5,23.0,29.14,SE,128,2.4,3.6,73,0.00,,,0.00,proprietary,2013-02-07 16:14:00,
2013-02-07 11:19:00,30.9,23.3,29.14,East,80,2.8,3.2,73,0.00,,,0.00,proprietary,2013-02-07 16:19:00,
2013-02-07 11:24:00,31.6,23.9,29.14,SE,140,6.0,7.7,73,0.00,,,0.00,proprietary,2013-02-07 16:24:00,
2013-02-07 11:29:00,31.4,23.2,29.14,SE,143,4.8,6.9,71,0.00,,,0.00,proprietary,2013-02-07 16:29:00,
2013-02-07 11:34:00,31.5,23.2,29.14,SE,144,5.9,6.9,71,0.00,,,0.00,proprietary,2013-02-07 16:34:00,
2013-02-07 11:39:00,31.4,23.5,29.14,SE,137,3.7,4.6,72,0.01,,,0.01,proprietary,2013-02-07 16:39:00,
2013-02-07 11:44:00,31.4,23.4,29.13,SE,137,2.8,4.1,71,0.01,,,0.01,proprietary,2013-02-07 16:44:00,
2013-02-07 11:50:00,31.5,23.6,29.13,SE,133,1.8,2.6,72,0.01,,,0.01,proprietary,2013-02-07 16:50:00,
2013-02-07 11:55:00,32.0,23.8,29.13,ESE,122,3.7,5.1,71,0.01,,,0.01,proprietary,2013-02-07 16:55:00,
2013-02-07 12:00:00,32.0,23.7,29.13,SE,124,3.9,5.7,71,0.01,,,0.01,proprietary,2013-02-07 17:00:00,
2013-02-07 12:05:00,32.1,23.8,29.12,East,101,3.2,4.1,71,0.01,,,0.01,proprietary,2013-02-07 17:05:00,
2013-02-07 12:10:00,32.0,23.7,29.12,East,99,3.2,4.4,71,0.01,,,0.01,proprietary,2013-02-07 17:10:00,
2013-02-07 12:15:00,32.2,24.0,29.11,East,83,2.2,2.8,71,0.02,,,0.02,proprietary,2013-02-07 17:15:00,
2013-02-07 12:20:00,32.2,24.0,29.11,SE,124,2.8,4.3,71,0.02,,,0.02,proprietary,2013-02-07 17:20:00,
2013-02-07 12:25:00,32.7,24.3,29.10,SE,133,3.7,5.3,70,0.02,,,0.02,proprietary,2013-02-07 17:25:00,
2013-02-07 12:30:00,32.8,24.3,29.10,SE,138,2.9,4.2,70,0.02,,,0.02,proprietary,2013-02-07 17:30:00,
2013-02-07 12:35:00,32.9,24.2,29.10,SE,136,3.6,5.0,70,0.03,,,0.03,proprietary,2013-02-07 17:35:00,
2013-02-07 12:40:00,33.1,24.3,29.09,SE,136,4.0,5.0,69,0.02,,,0.03,proprietary,2013-02-07 17:40:00,
2013-02-07 12:45:00,33.5,24.6,29.09,SE,130,5.3,6.5,69,0.02,,,0.03,proprietary,2013-02-07 17:45:00,
2013-02-07 12:50:00,33.7,24.9,29.09,East,100,3.9,9.4,69,0.02,,,0.03,proprietary,2013-02-07 17:50:00,
2013-02-07 12:55:00,33.8,24.9,29.08,SE,137,5.9,8.2,69,0.02,,,0.03,proprietary,2013-02-07 17:55:00,
2013-02-07 13:00:00,33.8,24.7,29.08,SE,141,5.2,6.8,69,0.02,,,0.03,proprietary,2013-02-07 18:00:00,
2013-02-07 13:05:00,34.0,24.8,29.08,SE,127,4.8,6.8,68,0.02,,,0.03,proprietary,2013-02-07 18:05:00,
2013-02-07 13:10:00,34.1,25.1,29.07,SE,145,5.2,6.8,69,0.02,,,0.03,proprietary,2013-02-07 18:10:00,
2013-02-07 13:15:00,34.3,25.1,29.07,SE,128,4.6,7.1,68,0.01,,,0.03,proprietary,2013-02-07 18:15:00,
2013-02-07 13:20:00,34.5,25.2,29.07,SE,142,5.4,5.8,68,0.01,,,0.03,proprietary,2013-02-07 18:20:00,
2013-02-07 13:25:00,34.9,25.5,29.07,SE,133,4.5,7.4,68,0.01,,,0.03,proprietary,2013-02-07 18:25:00,
2013-02-07 13:30:00,35.0,25.3,29.07,ESE,117,3.9,5.6,67,0.02,,,0.04,proprietary,2013-02-07 18:30:00,
2013-02-07 13:35:00,35.2,25.6,29.07,ESE,116,3.9,5.1,67,0.01,,,0.04,proprietary,2013-02-07 18:35:00,
2013-02-07 13:40:00,35.7,25.5,29.06,ESE,115,3.8,6.0,66,0.02,,,0.05,proprietary,2013-02-07 18:40:00,
2013-02-07 13:45:00,35.8,25.8,29.06,SE,131,4.0,5.2,66,0.02,,,0.05,proprietary,2013-02-07 18:45:00,
2013-02-07 13:50:00,36.7,26.0,29.06,East,93,4.0,6.1,64,0.03,,,0.06,proprietary,2013-02-07 18:50:00,
2013-02-07 13:55:00,37.0,26.0,29.05,ESE,114,4.2,5.8,64,0.03,,,0.06,proprietary,2013-02-07 18:55:00,
2013-02-07 14:00:00,36.8,26.1,29.05,SE,125,5.2,9.6,64,0.04,,,0.07,proprietary,2013-02-07 19:00:00,
2013-02-07 14:06:00,36.6,26.0,29.04,SE,139,7.1,7.9,65,0.04,,,0.07,proprietary,2013-02-07 19:06:00,
2013-02-07 14:11:00,36.6,26.0,29.04,SE,136,6.5,8.5,65,0.04,,,0.07,proprietary,2013-02-07 19:11:00,
2013-02-07 14:16:00,36.5,26.0,29.04,SE,128,4.4,6.6,65,0.04,,,0.07,proprietary,2013-02-07 19:16:00,
2013-02-07 14:21:00,36.4,26.0,29.03,SE,129,4.2,5.8,65,0.04,,,0.07,proprietary,2013-02-07 19:21:00,
2013-02-07 14:26:00,36.6,26.2,29.02,ESE,122,3.5,4.2,65,0.04,,,0.07,proprietary,2013-02-07 19:26:00,
2013-02-07 14:31:00,36.8,26.1,29.02,ESE,111,3.1,4.7,64,0.03,,,0.07,proprietary,2013-02-07 19:31:00,
2013-02-07 14:36:00,36.8,26.4,29.02,SE,138,3.2,4.0,65,0.03,,,0.07,proprietary,2013-02-07 19:36:00,
2013-02-07 14:41:00,37.4,26.8,29.02,ESE,120,3.2,4.3,64,0.02,,,0.07,proprietary,2013-02-07 19:41:00,
2013-02-07 14:46:00,37.5,26.5,29.02,ESE,122,3.9,5.4,64,0.02,,,0.07,proprietary,2013-02-07 19:46:00,
2013-02-07 14:51:00,37.3,26.5,29.02,ESE,105,4.3,7.3,64,0.01,,,0.07,proprietary,2013-02-07 19:51:00,
2013-02-07 14:56:00,37.5,26.7,29.01,ESE,119,3.6,4.8,64,0.01,,,0.07,proprietary,2013-02-07 19:56:00,
2013-02-07 15:01:00,37.9,26.7,29.00,ESE,104,4.0,5.7,63,0.00,,,0.07,proprietary,2013-02-07 20:01:00,
2013-02-07 15:06:00,38.5,26.7,29.00,East,84,5.4,8.2,62,0.00,,,0.07,proprietary,2013-02-07 20:06:00,
2013-02-07 15:11:00,38.4,26.6,29.00,East,99,3.6,5.4,62,0.00,,,0.07,proprietary,2013-02-07 20:11:00,
2013-02-07 15:16:00,38.3,26.8,28.99,East,82,5.4,8.6,62,0.00,,,0.07,proprietary,2013-02-07 20:16:00,
2013-02-07 15:21:00,38.8,27.3,28.99,ESE,109,5.0,7.0,63,0.00,,,0.07,proprietary,2013-02-07 20:21:00,
2013-02-07 15:26:00,38.8,27.0,28.99,ESE,106,3.2,4.8,62,0.00,,,0.07,proprietary,2013-02-07 20:26:00,
2013-02-07 15:31:00,38.9,27.2,28.98,ESE,102,4.7,7.4,62,0.00,,,0.07,proprietary,2013-02-07 20:31:00,
2013-02-07 15:36:00,39.2,27.4,28.98,East,90,4.1,5.8,62,0.00,,,0.07,proprietary,2013-02-07 20:36:00,
2013-02-07 15:41:00,38.8,27.1,28.98,East,91,2.9,3.7,62,0.00,,,0.07,proprietary,2013-02-07 20:41:00,
2013-02-07 15:46:00,38.7,27.1,28.98,ESE,102,0.1,1.3,62,0.00,,,0.07,proprietary,2013-02-07 20:46:00,
2013-02-07 15:51:00,38.6,27.0,28.98,ENE,76,5.6,9.8,62,0.00,,,0.07,proprietary,2013-02-07 20:51:00,
2013-02-07 15:56:00,38.4,26.9,28.98,East,91,4.6,6.7,63,0.00,,,0.07,proprietary,2013-02-07 20:56:00,
2013-02-07 16:01:00,38.2,26.9,28.98,ESE,113,4.8,6.8,63,0.00,,,0.07,proprietary,2013-02-07 21:01:00,
2013-02-07 16:06:00,38.0,26.9,28.97,East,99,4.0,6.0,63,0.00,,,0.07,proprietary,2013-02-07 21:06:00,
2013-02-07 16:11:00,37.9,27.0,28.97,East,93,4.7,6.4,64,0.00,,,0.07,proprietary,2013-02-07 21:11:00,
2013-02-07 16:16:00,38.1,27.1,28.97,ESE,111,3.9,6.7,64,0.00,,,0.07,proprietary,2013-02-07 21:16:00,
2013-02-07 16:21:00,38.8,27.4,28.97,East,92,6.4,8.4,63,0.00,,,0.07,proprietary,2013-02-07 21:21:00,
2013-02-07 16:26:00,39.1,27.4,28.97,East,100,4.8,7.7,62,0.00,,,0.07,proprietary,2013-02-07 21:26:00,
2013-02-07 16:31:00,38.4,27.1,28.96,ESE,120,4.2,6.6,63,0.00,,,0.07,proprietary,2013-02-07 21:31:00,
2013-02-07 16:36:00,38.0,27.1,28.96,East,94,4.9,6.8,64,0.00,,,0.07,proprietary,2013-02-07 21:36:00,
2013-02-07 16:41:00,37.6,27.1,28.96,ESE,108,4.3,7.6,65,0.00,,,0.07,proprietary,2013-02-07 21:41:00,
2013-02-07 16:46:00,37.4,27.0,28.96,ESE,116,1.6,2.5,65,0.00,,,0.07,proprietary,2013-02-07 21:46:00,
2013-02-07 16:51:00,37.3,27.1,28.96,East,95,2.4,3.1,66,0.00,,,0.07,proprietary,2013-02-07 21:51:00,
2013-02-07 16:56:00,36.9,26.9,28.95,East,98,3.6,6.7,66,0.00,,,0.07,proprietary,2013-02-07 21:56:00,
2013-02-07 17:01:00,36.5,26.6,28.95,East,94,3.0,5.1,67,0.00,,,0.07,proprietary,2013-02-07 22:01:00,
2013-02-07 17:06:00,36.2,26.7,28.95,East,101,5.2,8.0,67,0.00,,,0.07,proprietary,2013-02-07 22:06:00,
2013-02-07 17:11:00,36.0,26.7,28.95,ESE,106,5.2,6.8,68,0.00,,,0.07,proprietary,2013-02-07 22:11:00,
2013-02-07 17:16:00,36.0,26.7,28.95,ESE,115,3.5,6.5,68,0.00,,,0.07,proprietary,2013-02-07 22:16:00,
2013-02-07 17:21:00,35.9,26.9,28.95,East,99,4.7,7.6,69,0.00,,,0.07,proprietary,2013-02-07 22:21:00,
2013-02-07 17:26:00,35.8,26.9,28.95,East,96,5.5,7.9,69,0.00,,,0.07,proprietary,2013-02-07 22:26:00,
2013-02-07 17:31:00,35.7,26.6,28.95,SE,128,4.7,6.7,69,0.00,,,0.07,proprietary,2013-02-07 22:31:00,
2013-02-07 17:36:00,35.5,26.6,28.95,ENE,72,3.7,5.1,69,0.00,,,0.07,proprietary,2013-02-07 22:36:00,
2013-02-07 17:41:00,35.4,26.5,28.95,ESE,113,3.7,5.4,69,0.00,,,0.07,proprietary,2013-02-07 22:41:00,
2013-02-07 17:46:00,35.3,26.4,28.95,ESE,105,3.5,5.4,69,0.00,,,0.07,proprietary,2013-02-07 22:46:00,
2013-02-07 17:51:00,35.1,26.4,28.96,East,94,3.7,5.4,70,0.00,,,0.07,proprietary,2013-02-07 22:51:00,
2013-02-07 17:56:00,34.9,26.5,28.96,East,79,3.4,5.3,70,0.00,,,0.07,proprietary,2013-02-07 22:56:00,
2013-02-07 18:01:00,34.7,26.3,28.95,ENE,76,3.3,4.9,71,0.00,,,0.07,proprietary,2013-02-07 23:01:00,
2013-02-07 18:06:00,34.4,26.2,28.95,ESE,102,3.5,5.3,71,0.00,,,0.07,proprietary,2013-02-07 23:06:00,
2013-02-07 18:11:00,34.1,26.0,28.95,East,98,4.0,7.8,71,0.00,,,0.07,proprietary,2013-02-07 23:11:00,
2013-02-07 18:16:00,33.9,26.0,28.95,East,99,2.5,3.5,72,0.00,,,0.07,proprietary,2013-02-07 23:16:00,
2013-02-07 18:21:00,33.6,25.7,28.95,ESE,102,3.8,5.6,72,0.00,,,0.07,proprietary,2013-02-07 23:21:00,
2013-02-07 18:26:00,33.4,25.5,28.95,SE,128,6.0,10.5,72,0.00,,,0.07,proprietary,2013-02-07 23:26:00,
2013-02-07 18:32:00,33.2,25.4,28.94,ESE,102,4.6,9.6,72,0.00,,,0.07,proprietary,2013-02-07 23:32:00,
2013-02-07 18:37:00,33.0,25.4,28.95,ESE,120,3.8,6.2,73,0.00,,,0.07,proprietary,2013-02-07 23:37:00,
2013-02-07 18:42:00,32.8,25.3,28.94,East,95,7.1,10.6,73,0.00,,,0.07,proprietary,2013-02-07 23:42:00,
2013-02-07 18:47:00,32.7,25.2,28.95,ESE,116,4.9,7.5,73,0.00,,,0.07,proprietary,2013-02-07 23:47:00,
2013-02-07 18:52:00,32.6,25.2,28.94,ESE,116,4.4,6.9,73,0.00,,,0.07,proprietary,2013-02-07 23:52:00,
2013-02-07 18:57:00,32.4,25.2,28.94,ESE,109,4.2,8.4,74,0.00,,,0.07,proprietary,2013-02-07 23:57:00,
2013-02-07 19:02:00,32.3,25.2,28.95,ESE,102,3.7,6.0,74,0.00,,,0.07,proprietary,2013-02-08 00:02:00,
2013-02-07 19:07:00,32.2,25.1,28.94,ESE,110,5.5,6.8,74,0.00,,,0.07,proprietary,2013-02-08 00:07:00,
2013-02-07 19:12:00,32.0,25.2,28.94,ESE,110,4.8,9.3,75,0.00,,,0.07,proprietary,2013-02-08 00:12:00,
2013-02-07 19:17:00,31.9,25.2,28.93,ESE,112,3.0,5.0,75,0.00,,,0.07,proprietary,2013-02-08 00:17:00,
2013-02-07 19:22:00,31.8,25.3,28.91,ESE,105,3.1,5.4,76,0.00,,,0.07,proprietary,2013-02-08 00:22:00,
2013-02-07 19:27:00,31.8,25.2,28.93,SE,130,2.9,4.9,76,0.00,,,0.07,proprietary,2013-02-08 00:27:00,
2013-02-07 19:32:00,31.6,24.7,28.93,ESE,106,5.5,8.4,75,0.00,,,0.07,proprietary,2013-02-08 00:32:00,
2013-02-07 19:37:00,31.5,24.4,28.93,ESE,109,4.3,5.7,74,0.00,,,0.07,proprietary,2013-02-08 00:37:00,
2013-02-07 19:42:00,31.5,24.4,28.93,ESE,103,3.6,5.6,74,0.00,,,0.07,proprietary,2013-02-08 00:42:00,
2013-02-07 19:47:00,31.4,24.4,28.93,ENE,78,3.0,4.0,75,0.00,,,0.07,proprietary,2013-02-08 00:47:00,
2013-02-07 19:52:00,31.4,24.5,28.93,East,95,1.5,3.5,75,0.00,,,0.07,proprietary,2013-02-08 00:52:00,
2013-02-07 19:57:00,31.3,24.6,28.93,East,90,3.5,5.2,75,0.00,,,0.07,proprietary,2013-02-08 00:57:00,
2013-02-07 20:02:00,31.2,24.7,28.92,ENE,78,5.7,8.5,76,0.00,,,0.07,proprietary,2013-02-08 01:02:00,
2013-02-07 20:07:00,31.2,24.6,28.92,East,79,6.1,8.4,76,0.00,,,0.07,proprietary,2013-02-08 01:07:00,
2013-02-07 20:12:00,31.1,24.6,28.92,East,92,4.8,6.0,76,0.00,,,0.07,proprietary,2013-02-08 01:12:00,
2013-02-07 20:17:00,31.0,24.6,28.92,East,98,5.1,7.3,76,0.00,,,0.07,proprietary,2013-02-08 01:17:00,
2013-02-07 20:22:00,30.9,24.4,28.91,East,82,4.6,7.5,76,0.00,,,0.07,proprietary,2013-02-08 01:22:00,
2013-02-07 20:27:00,30.8,24.5,28.91,ESE,107,2.3,4.3,77,0.00,,,0.07,proprietary,2013-02-08 01:27:00,
2013-02-07 20:32:00,30.7,24.5,28.91,East,80,3.5,5.1,77,0.00,,,0.07,proprietary,2013-02-08 01:32:00,
2013-02-07 20:37:00,30.6,24.5,28.91,ENE,64,0.7,2.1,78,0.00,,,0.07,proprietary,2013-02-08 01:37:00,
2013-02-07 20:42:00,30.5,24.5,28.91,ENE,72,4.1,5.8,78,0.00,,,0.07,proprietary,2013-02-08 01:42:00,
2013-02-07 20:47:00,30.4,24.4,28.91,ENE,71,3.2,4.8,78,0.00,,,0.07,proprietary,2013-02-08 01:47:00,
2013-02-07 20:52:00,30.3,24.4,28.91,ENE,65,1.8,3.7,78,0.00,,,0.07,proprietary,2013-02-08 01:52:00,
2013-02-07 20:57:00,30.2,24.3,28.91,East,90,2.8,3.9,78,0.00,,,0.07,proprietary,2013-02-08 01:57:00,
2013-02-07 21:02:00,30.2,24.3,28.90,ENE,70,5.4,8.2,78,0.00,,,0.07,proprietary,2013-02-08 02:02:00,
2013-02-07 21:07:00,30.1,24.3,28.90,ENE,74,2.1,3.6,78,0.00,,,0.07,proprietary,2013-02-08 02:07:00,
2013-02-07 21:12:00,30.1,24.2,28.90,ENE,64,4.7,8.0,78,0.00,,,0.07,proprietary,2013-02-08 02:12:00,
2013-02-07 21:18:00,30.1,24.3,28.89,ENE,72,3.5,6.7,78,0.00,,,0.07,proprietary,2013-02-08 02:18:00,
2013-02-07 21:23:00,30.1,24.4,28.89,ENE,66,3.0,5.4,79,0.00,,,0.07,proprietary,2013-02-08 02:23:00,
2013-02-07 21:29:00,30.1,24.4,28.89,ENE,61,2.2,4.3,78,0.00,,,0.07,proprietary,2013-02-08 02:29:00,
2013-02-07 21:34:00,30.1,24.2,28.89,NE,46,2.9,3.3,78,0.00,,,0.07,proprietary,2013-02-08 02:34:00,
2013-02-07 21:39:00,30.1,24.2,28.89,ENE,76,5.5,10.6,78,0.00,,,0.07,proprietary,2013-02-08 02:39:00,
2013-02-07 21:44:00,30.0,24.1,28.89,ENE,61,2.3,4.0,78,0.00,,,0.07,proprietary,2013-02-08 02:44:00,
2013-02-07 21:49:00,30.0,24.0,28.89,ENE,72,2.9,3.8,77,0.00,,,0.07,proprietary,2013-02-08 02:49:00,
2013-02-07 21:54:00,30.0,23.7,28.90,East,80,2.7,6.2,77,0.00,,,0.07,proprietary,2013-02-08 02:54:00,
2013-02-07 21:59:00,30.0,23.6,28.89,ENE,78,2.6,4.1,77,0.00,,,0.07,proprietary,2013-02-08 02:59:00,
2013-02-07 22:04:00,30.0,23.6,28.89,East,87,3.5,4.5,76,0.00,,,0.07,proprietary,2013-02-08 03:04:00,
2013-02-07 22:09:00,30.0,23.6,28.89,ENE,77,4.3,6.0,76,0.00,,,0.07,proprietary,2013-02-08 03:09:00,
2013-02-07 22:14:00,30.1,23.6,28.89,East,89,4.1,5.7,76,0.00,,,0.07,proprietary,2013-02-08 03:14:00,
2013-02-07 22:19:00,30.1,23.6,28.89,ENE,73,1.6,2.0,76,0.00,,,0.07,proprietary,2013-02-08 03:19:00,
2013-02-07 22:24:00,30.1,23.5,28.89,ENE,57,2.8,3.8,76,0.00,,,0.07,proprietary,2013-02-08 03:24:00,
2013-02-07 22:30:00,30.1,23.5,28.88,ENE,63,4.0,4.9,76,0.00,,,0.07,proprietary,2013-02-08 03:30:00,
2013-02-07 22:35:00,30.1,23.3,28.88,ENE,63,1.5,3.3,75,0.00,,,0.07,proprietary,2013-02-08 03:35:00,
2013-02-07 22:41:00,30.1,23.3,28.88,NE,53,2.4,3.4,75,0.00,,,0.07,proprietary,2013-02-08 03:41:00,
2013-02-07 22:46:00,30.1,23.3,28.88,NE,54,2.3,3.1,75,0.00,,,0.07,proprietary,2013-02-08 03:46:00,
2013-02-07 22:51:00,30.0,23.4,28.88,NE,51,2.7,3.5,76,0.00,,,0.07,proprietary,2013-02-08 03:51:00,
2013-02-07 22:56:00,29.8,23.6,28.88,NE,41,3.3,4.6,77,0.00,,,0.07,proprietary,2013-02-08 03:56:00,
2013-02-07 23:02:00,29.4,24.0,28.88,ENE,61,4.0,6.2,80,0.00,,,0.07,proprietary,2013-02-08 04:02:00,
2013-02-07 23:07:00,29.0,24.5,28.87,NE,49,4.5,6.0,82,0.00,,,0.07,proprietary,2013-02-08 04:07:00,
2013-02-07 23:12:00,28.8,24.8,28.87,NE,55,4.5,5.1,84,0.00,,,0.07,proprietary,2013-02-08 04:12:00,
2013-02-07 23:18:00,28.5,25.1,28.86,NNE,23,4.3,6.1,86,0.00,,,0.07,proprietary,2013-02-08 04:18:00,
2013-02-07 23:23:00,28.4,25.3,28.85,ENE,68,5.2,6.8,88,0.00,,,0.07,proprietary,2013-02-08 04:23:00,
2013-02-07 23:28:00,28.4,25.5,28.85,NNE,33,3.4,5.8,88,0.00,,,0.07,proprietary,2013-02-08 04:28:00,
2013-02-07 23:34:00,28.3,25.5,28.84,NE,34,3.9,5.4,89,0.00,,,0.07,proprietary,2013-02-08 04:34:00,
2013-02-07 23:39:00,28.3,25.7,28.84,NE,50,5.6,8.2,89,0.00,,,0.07,proprietary,2013-02-08 04:39:00,
2013-02-07 23:44:00,28.4,25.8,28.84,NNE,27,3.9,7.0,89,0.00,,,0.07,proprietary,2013-02-08 04:44:00,
2013-02-07 23:49:00,28.5,26.0,28.84,ENE,57,4.3,5.8,90,0.00,,,0.07,proprietary,2013-02-08 04:49:00,
2013-02-07 23:54:00,28.6,26.1,28.84,ENE,76,4.4,6.9,90,0.00,,,0.07,proprietary,2013-02-08 04:54:00,